[[{"header":{"parameterUnit":"m.s-1","parameterCategory":1,"la1":30.2991,"la2":30.254,"lo1":-89.0895,"lo2":-89.0444,"dy":0.0017,"dx":0.0017,"nx":28,"ny":28,"refTime":"2024-02-16T09:00:00:Z","depth":0,"parameterNumber":2,"parameterNumberName":"U-component_of_WINDS"},"data":[0,0,0,0,0,0,0,0,0,0,0,0,0,0,0,0,0,0,0,0,0,0,0,0,0,0,0,0,0,0,0,0,0,0,0,0,0,0,0,0,0,0,0,0,0,0,0,0,0,0,0,0,0,0,0,0,0,0,-1.5484,-1.5484,0,-1.5522,-1.5523,-1.5523,-1.5473,-1.5471,-1.5469,-1.5467,-1.5511,-1.5514,-1.5517,0,0,0,0,0,0,0,0,0,0,0,0,0,-1.5371,-1.5373,-1.5484,-1.5484,-1.5485,-1.5522,-1.5523,-1.5523,-1.5473,-1.5471,-1.5469,-1.5467,-1.551,-1.5513,-1.5517,0,0,0,0,0,0,0,0,0,0,0,0,0,-1.5416,-1.5374,-1.5484,-1.5464,-1.5463,-1.5522,-1.5523,-1.5523,-1.5474,-1.5471,-1.5468,-1.5466,-1.5509,-1.5513,-1.5517,-1.5599,0,0,-1.5531,-1.5532,0,0,0,0,0,0,0,0,-1.5413,-1.542,-1.5466,-1.5466,-1.5464,-1.549,-1.5499,-1.5549,-1.5474,-1.547,-1.5467,-1.5464,-1.5506,-1.5511,-1.5524,-1.5601,-1.5603,-1.5531,-1.5534,-1.5535,-1.5537,0,0,0,0,0,0,0,-1.541,-1.5418,-1.5499,-1.5467,-1.5466,-1.5455,-1.5458,-1.5508,-1.5503,-1.547,-1.5466,-1.5471,-1.5505,-1.552,-1.5525,-1.5604,-1.5531,-1.5535,-1.5537,-1.5539,-1.575,-1.5753,0,0,0,0,0,0,-1.5409,-1.5416,-1.5498,-1.55,-1.5431,-1.5459,-1.5463,-1.5484,-1.5502,-1.5502,-1.5474,-1.5469,-1.5514,-1.552,-1.5526,-1.5623,-1.5535,-1.5539,-1.5542,-1.5747,-1.5751,-1.5754,0,0,0,0,0,0,-1.5406,-1.5417,-1.5496,-1.5457,-1.5466,-1.5464,-1.5489,-1.5487,-1.5501,-1.5505,-1.5505,-1.5489,-1.5512,-1.552,-1.5581,-1.5624,-1.5541,-1.5545,-1.5743,-1.5748,-1.5752,-1.5818,0,0,0,0,0,0,-1.5403,-1.5416,-1.5446,-1.5458,-1.5469,-1.555,-1.5491,-1.5489,-1.5508,-1.5503,-1.552,-1.552,-1.5511,-1.5575,-1.5585,-1.5629,-1.5549,-1.574,-1.5746,-1.5751,-1.5812,-1.5824,-1.5835,0,0,0,0,0,-1.54,-1.5464,-1.5448,-1.5458,-1.5506,-1.5552,-1.5558,-1.5545,-1.5512,-1.5543,-1.5545,-1.552,-1.5618,-1.5582,-1.5593,-1.5638,-1.5737,-1.5744,-1.575,-1.5807,-1.5822,-1.5834,0,0,0,0,0,0,-1.5458,-1.5465,-1.5447,-1.5517,-1.5534,-1.5543,-1.5582,-1.5561,-1.5589,-1.5582,-1.5566,-1.557,-1.5635,-1.5643,-1.5603,-1.5718,-1.5672,-1.5681,-1.5711,-1.5725,-1.5736,-1.5734,-1.5552,0,0,0,0,0,-1.5479,-1.5515,-1.5519,-1.558,-1.559,-1.5585,-1.5604,-1.5592,-1.561,-1.5617,-1.5624,-1.5644,-1.5679,-1.5702,-1.5735,-1.5813,-1.5816,-1.5849,-1.5861,-1.587,-1.5879,-1.5921,-1.5936,-1.5776,-1.5776,-1.5776,0,0,-1.5523,-1.5531,-1.5555,-1.5592,-1.5604,-1.5643,-1.5591,-1.5634,-1.5663,-1.5624,-1.5682,-1.5688,-1.5709,-1.5778,-1.581,-1.5787,-1.5923,-1.5879,-1.5886,-1.589,-1.593,-1.5945,-1.5958,-1.5781,-1.578,-1.5779,0,0,-1.5623,-1.5632,-1.5684,-1.5697,-1.5715,-1.5711,-1.5724,-1.5736,-1.5738,-1.5796,-1.5768,-1.5802,-1.5863,-1.5879,-1.5895,-1.6001,-1.5979,-1.6012,-1.6072,-1.6113,-1.6126,-1.6137,-1.6175,-1.6189,-1.6021,-1.6021,-1.6021,0,-1.5675,-1.5731,-1.5714,-1.5759,-1.5776,-1.5742,-1.5795,-1.5809,-1.5838,-1.5852,-1.5825,-1.5901,-1.5912,-1.5985,-1.6011,-1.6025,-1.604,-1.601,-1.6125,-1.6136,-1.6146,-1.6183,-1.6197,-1.6025,-1.6024,-1.6024,-1.6024,0,-1.5795,-1.5834,-1.5874,-1.5901,-1.5924,-1.5973,-1.5964,-1.5989,-1.5976,-1.5975,-1.6035,-1.6047,-1.6082,-1.6098,-1.6086,-1.617,-1.6155,-1.6127,-1.6081,-1.6166,-1.62,-1.6214,-1.6031,-1.6029,-1.6028,-1.6027,0,0,-1.5933,-1.5949,-1.5965,-1.5977,-1.5994,-1.6025,-1.6073,-1.6106,-1.6128,-1.6149,-1.6189,-1.6242,-1.6216,-1.6234,-1.6223,-1.626,-1.6344,-1.6227,-1.6228,-1.6249,-1.6439,-1.646,-1.6476,-1.6329,-1.6331,-1.6333,-1.6437,0,-1.6033,-1.6114,-1.61,-1.618,-1.6216,-1.6184,-1.6226,-1.6243,-1.6244,-1.6276,-1.6277,-1.6315,-1.6277,-1.6288,-1.6323,-1.6326,-1.6382,-1.6318,-1.6368,-1.637,-1.6364,-1.6494,-1.6516,-1.6613,-1.645,-1.6452,-1.6454,0,-1.616,-1.6184,-1.6267,-1.6279,-1.6294,-1.6332,-1.6361,-1.6392,-1.641,-1.6408,-1.6429,-1.6411,-1.6461,-1.6413,-1.6481,-1.6439,-1.6458,-1.6463,-1.6466,-1.6471,-1.6417,-1.6502,-1.6644,-1.6659,-1.6475,-1.6473,-1.6472,0,-1.6253,-1.6307,-1.6363,-1.6375,-1.639,-1.6418,-1.6426,-1.6441,-1.6461,-1.6487,-1.6501,-1.6533,-1.655,-1.6576,-1.6568,-1.6534,-1.6639,-1.659,-1.664,-1.664,-1.6664,-1.6662,-1.6811,-1.6675,-1.6675,-1.6675,-1.6675,0,-1.6366,-1.6418,-1.6405,-1.644,-1.6498,-1.6482,-1.654,-1.6545,-1.6559,-1.6595,-1.657,-1.6605,-1.6592,-1.6626,-1.6621,-1.6679,-1.6687,-1.6688,-1.6686,-1.669,-1.669,-1.6703,-1.6696,-1.6679,-1.6678,-1.6677,-1.6677,0,-1.6479,-1.6473,-1.6532,-1.6542,-1.6546,-1.6588,-1.6597,-1.663,-1.6629,-1.6675,-1.6685,-1.6684,-1.6723,-1.6718,-1.6762,-1.6758,-1.6831,-1.682,-1.6824,-1.6822,-1.6872,-1.6868,-1.7034,-1.7056,-1.6906,-1.6908,-1.6909,0,-1.6552,-1.6591,-1.6605,-1.6627,-1.6636,-1.6672,-1.6693,-1.6679,-1.6702,-1.6726,-1.6757,-1.6793,-1.6822,-1.6887,-1.6891,-1.6925,-1.6915,-1.6971,-1.692,-1.6924,-1.6917,-1.6915,-1.6919,-1.6982,-1.6983,-1.6985,-1.6986,0,-1.6682,-1.6677,-1.6707,-1.6736,-1.6761,-1.6784,-1.6804,-1.6824,-1.6812,-1.684,-1.6879,-1.6901,-1.6946,-1.6983,-1.7015,-1.7024,-1.7004,-1.7002,-1.7015,-1.702,-1.7021,-1.7022,-1.6852,-1.6998,-1.6997,-1.6996,-1.6995,-1.6995,-1.6778,-1.6811,-1.6826,-1.6861,-1.6874,-1.6894,-1.6926,-1.6928,-1.696,-1.6994,-1.6985,-1.703,-1.7048,-1.7088,-1.7102,-1.7137,-1.7117,-1.7136,-1.7141,-1.7146,-1.7152,-1.7015,-1.7143,-1.7143,-1.7142,-1.7142,-1.7142,0,-1.6907,-1.6915,-1.6947,-1.6975,-1.7003,-1.6979,-1.7001,-1.7026,-1.7065,-1.7083,-1.7112,-1.7157,-1.7193,-1.72,-1.7235,-1.7262,-1.7254,-1.7272,-1.727,-1.7273,-1.7168,-1.7153,-1.7278,-1.7278,-1.7278,-1.7278,-1.7278,-1.7278,-1.6977,-1.7033,-1.703,-1.7092,-1.71,-1.7142,-1.7157,-1.7175,-1.7189,-1.7241,-1.727,-1.7274,-1.7288,-1.7323,-1.7356,-1.7357,-1.7372,-1.7394,-1.7391,-1.7294,-1.728,-1.7267,-1.7253,-1.7397,-1.7397,-1.7493,-1.7493,-1.7494]},{"header":{"parameterUnit":"m.s-1","parameterCategory":1,"la1":30.2991,"la2":30.254,"lo1":-89.0895,"lo2":-89.0444,"dy":0.0017,"dx":0.0017,"nx":28,"ny":28,"refTime":"2024-02-16T09:00:00:Z","depth":0,"parameterNumber":3,"parameterNumberName":"V-component_of_WINDS"},"data":[0,0,0,0,0,0,0,0,0,0,0,0,0,0,0,0,0,0,0,0,0,0,0,0,0,0,0,0,0,0,0,0,0,0,0,0,0,0,0,0,0,0,0,0,0,0,0,0,0,0,0,0,0,0,0,0,0,0,0.4514,0.4514,0,0.4503,0.4503,0.4503,0.4489,0.4489,0.4489,0.4488,0.4477,0.4477,0.4476,0,0,0,0,0,0,0,0,0,0,0,0,0,0.4524,0.4524,0.4514,0.4514,0.4514,0.4503,0.4503,0.4503,0.4489,0.4489,0.4489,0.4488,0.4477,0.4477,0.4476,0,0,0,0,0,0,0,0,0,0,0,0,0,0.4517,0.4524,0.4515,0.4506,0.4505,0.4504,0.4503,0.4503,0.4489,0.4489,0.4489,0.4488,0.4477,0.4477,0.4476,0.4482,0,0,0.4476,0.4476,0,0,0,0,0,0,0,0,0.4517,0.4517,0.4507,0.4507,0.4506,0.4497,0.4502,0.4496,0.4489,0.4495,0.4488,0.4488,0.4484,0.4483,0.4482,0.4482,0.4481,0.4476,0.4476,0.4476,0.4476,0,0,0,0,0,0,0,0.4518,0.4517,0.451,0.4507,0.4506,0.4503,0.4501,0.4501,0.4491,0.4495,0.4494,0.4493,0.4483,0.4482,0.4481,0.4481,0.4476,0.4476,0.4476,0.4476,0.4487,0.4487,0,0,0,0,0,0,0.452,0.4518,0.451,0.451,0.4511,0.4503,0.4501,0.45,0.4491,0.449,0.4493,0.4492,0.4482,0.4481,0.4481,0.4488,0.4476,0.4476,0.4475,0.4486,0.4487,0.4487,0,0,0,0,0,0,0.452,0.4519,0.4511,0.4513,0.4512,0.4503,0.4502,0.45,0.4499,0.449,0.4488,0.4493,0.4482,0.4481,0.4482,0.4487,0.4476,0.4475,0.4486,0.4486,0.4487,0.4501,0,0,0,0,0,0,0.452,0.4519,0.4521,0.4514,0.4512,0.4512,0.4502,0.45,0.4499,0.4497,0.449,0.4488,0.4482,0.4483,0.4482,0.4487,0.4475,0.4485,0.4486,0.4487,0.45,0.4502,0.4504,0,0,0,0,0,0.4521,0.4525,0.4521,0.4521,0.4514,0.4513,0.4512,0.4504,0.4499,0.4501,0.4496,0.4489,0.4487,0.4483,0.4482,0.4487,0.4485,0.4486,0.4487,0.45,0.4502,0.4504,0,0,0,0,0,0,0.4533,0.4524,0.452,0.4522,0.4518,0.451,0.4512,0.4507,0.4504,0.4503,0.4494,0.4492,0.4495,0.4491,0.4487,0.4493,0.4485,0.4486,0.4495,0.4497,0.4499,0.45,0.4475,0,0,0,0,0,0.4536,0.4536,0.4528,0.4531,0.4529,0.4521,0.452,0.4515,0.4511,0.4509,0.4504,0.45,0.4498,0.4498,0.4496,0.45,0.4499,0.4503,0.4505,0.4506,0.4507,0.451,0.4512,0.449,0.449,0.449,0,0,0.4542,0.4537,0.4538,0.4533,0.453,0.453,0.452,0.452,0.452,0.4509,0.451,0.4506,0.4501,0.4504,0.4505,0.4501,0.4513,0.4507,0.4509,0.4509,0.4511,0.4513,0.4515,0.4491,0.449,0.449,0,0,0.4554,0.455,0.4552,0.4549,0.4545,0.4539,0.454,0.4534,0.4531,0.4532,0.4524,0.4524,0.4521,0.4519,0.4517,0.4529,0.4523,0.4529,0.4538,0.4541,0.4543,0.4544,0.4549,0.4551,0.453,0.453,0.453,0,0.4562,0.4562,0.4554,0.4555,0.4554,0.4544,0.4547,0.4545,0.4539,0.4539,0.4534,0.4532,0.4528,0.4531,0.4534,0.4533,0.4534,0.4529,0.4543,0.4545,0.4546,0.455,0.4552,0.453,0.453,0.453,0.453,0,0.4572,0.4572,0.4575,0.4571,0.457,0.4572,0.4565,0.4565,0.456,0.4556,0.4558,0.4553,0.455,0.4551,0.4545,0.4553,0.4551,0.4545,0.4537,0.4549,0.4553,0.4555,0.4532,0.4531,0.4531,0.4531,0,0,0.459,0.4583,0.4584,0.4583,0.4577,0.4577,0.4579,0.4577,0.4578,0.4575,0.4577,0.4576,0.4571,0.4569,0.4564,0.4566,0.4577,0.456,0.456,0.4564,0.4586,0.4591,0.4593,0.4573,0.4574,0.4574,0.4587,0,0.46,0.4603,0.4597,0.4602,0.4602,0.4594,0.4596,0.4593,0.459,0.459,0.4586,0.4585,0.4579,0.4578,0.458,0.4575,0.4582,0.4575,0.4575,0.4575,0.4576,0.4595,0.4599,0.4611,0.4588,0.4589,0.4589,0,0.4613,0.4611,0.4616,0.4612,0.4612,0.4613,0.4612,0.4612,0.4609,0.4606,0.4605,0.4599,0.4602,0.4594,0.4597,0.4593,0.4593,0.4591,0.4591,0.4591,0.4582,0.4595,0.4615,0.4617,0.4591,0.4591,0.4591,0,0.4626,0.4625,0.4628,0.4627,0.4622,0.4624,0.4622,0.4618,0.4618,0.4617,0.4617,0.4616,0.4615,0.4615,0.4609,0.4604,0.4613,0.4605,0.4611,0.4611,0.4613,0.4613,0.4633,0.4613,0.4613,0.4613,0.4613,0,0.4638,0.4641,0.4634,0.4636,0.4639,0.4633,0.4637,0.4634,0.4632,0.4633,0.4626,0.4628,0.462,0.4621,0.4617,0.462,0.462,0.4618,0.4617,0.4619,0.4619,0.4618,0.4617,0.4613,0.4613,0.4613,0.4613,0,0.4652,0.4648,0.4651,0.4646,0.4645,0.4648,0.4645,0.4646,0.4643,0.4645,0.4645,0.464,0.464,0.4635,0.4634,0.4632,0.4637,0.4635,0.4638,0.4638,0.4644,0.4644,0.4665,0.4667,0.4645,0.4646,0.4646,0,0.466,0.4663,0.4659,0.466,0.4659,0.466,0.466,0.4654,0.4654,0.4652,0.4654,0.4655,0.4655,0.4656,0.4652,0.4652,0.465,0.4657,0.4649,0.4652,0.465,0.465,0.465,0.4659,0.4659,0.4659,0.4659,0,0.4675,0.4673,0.4673,0.4674,0.4674,0.4674,0.4673,0.4674,0.4668,0.4669,0.467,0.467,0.467,0.4671,0.467,0.4668,0.4663,0.4662,0.4663,0.4665,0.4667,0.4666,0.4643,0.4661,0.4661,0.4661,0.4661,0.4661,0.4687,0.4689,0.4687,0.4688,0.4687,0.4687,0.4689,0.4686,0.4687,0.4687,0.4684,0.4686,0.4684,0.4683,0.4682,0.4684,0.468,0.4682,0.4682,0.4683,0.4684,0.4667,0.4683,0.4683,0.4683,0.4683,0.4683,0,0.4701,0.47,0.4701,0.4701,0.4702,0.4698,0.4697,0.4698,0.47,0.4699,0.47,0.4702,0.4703,0.4699,0.47,0.4702,0.47,0.4702,0.4702,0.4702,0.4687,0.4686,0.4704,0.4704,0.4704,0.4704,0.4704,0.4704,0.4709,0.4713,0.4711,0.4715,0.4714,0.4716,0.4716,0.4716,0.4715,0.4718,0.4719,0.4717,0.4715,0.4716,0.4717,0.4716,0.4717,0.472,0.4719,0.4705,0.4703,0.4701,0.47,0.4721,0.4721,0.4733,0.4733,0.4733]}]]